Regional Weather Roundup
Issued by NWS Huntsville, AL

Home | Current Version | Previous Version | Text Only | Print | Product List | Glossary On
Versions: 1 2 3 4 5 6 7 8 9 10 11 12 13 14 15 16 17 18 19 20 21 22 23 24 25 26 27 28 29 30 31 32 33 34 35 36 37 38 39 40 41 42 43 44 45 46 47 48 49 50
000
ASUS44 KHUN 061510
RWRHUN

WEATHER ROUNDUP FOR THE TENNESSEE VALLEY
NATIONAL WEATHER SERVICE HUNTSVILLE AL
1000 AM CDT FRI MAY 06 2016

ALZ001>004-061600-
NORTHWEST ALABAMA

CITY           SKY/WX    TMP DP  RH WIND       PRES   REMARKS
COURTLAND HCN    N/A     63 N/A N/A NW6         N/A
RUSSELLVILLE     N/A     63 N/A N/A MISG        N/A
SHOALS AIRPORT SUNNY     66  44  45 N10       30.07S
SHOALS TVA RES   N/A     63 N/A N/A MISG        N/A
$$

ALZ005>007-016-061600-
NORTH CENTRAL ALABAMA

CITY           SKY/WX    TMP DP  RH WIND       PRES   REMARKS
CULLMAN AG STN   N/A     57 N/A N/A N7          N/A
DECATUR AP     SUNNY     63  45  51 N10       30.05S
HUNTSVILLE AP  SUNNY     65  46  50 N6        30.04S
HUN NWS/UAH      N/A     62  45  54 N3          N/A
MERIDIANVILLE  SUNNY     59  43  55 N5        30.04F
REDSTONE ARSN  SUNNY     61  45  55 N8        30.05R
VINEMONT AP    FAIR      58  47  65 N8        30.06F
$$

ALZ008>010-061600-
NORTHEAST ALABAMA

CITY           SKY/WX    TMP DP  RH WIND       PRES   REMARKS
ALBERTVILLE    SUNNY     59  52  77 N9        30.02S
FORT PAYNE     SUNNY     59  45  58 N5        30.00F
SCOTTSBORO AP  SUNNY     63  48  59 NE6       30.02F
SCOTTSBORO HCN   N/A     61 N/A N/A MISG        N/A
VALLEY HEAD      N/A     55 N/A N/A MISG        N/A
$$

TNZ076-096-097-061600-
SOUTHEASTERN MIDDLE TENNESSEE

CITY           SKY/WX    TMP DP  RH WIND       PRES   REMARKS
TULLAHOMA      SUNNY     57  50  77 N7        30.04S
WINCHESTER     SUNNY     55  46  71 N8        30.04S
$$

...SURROUNDING SITES...

CITY           SKY/WX    TMP DP  RH WIND       PRES   REMARKS
ATLANTA        PTSUNNY   61  43  51 NW15G26   29.95R
ANNISTON       MOSUNNY   61  47  59 VRB3      30.02S
BIRMINGHAM     SUNNY     61  47  59 N7        30.06S
CHATTANOOGA    MOSUNNY   64  45  49 N13G24    29.99R
DALTON         SUNNY     59  50  72 N6        29.98S
GADSDEN        SUNNY     62  50  64 NW7       30.02F
GOLDEN TRNGL   SUNNY     64  48  55 N12       30.07F
HALEYVILLE     FAIR      63  47  55 N8        30.08S
JACKSON TN     SUNNY     65  48  54 N10       30.09S
MEMPHIS        SUNNY     66  49  54 N6        30.11R
NASHVILLE      MOSUNNY   65  45  48 NW6       30.05S
OXFORD MS      FAIR      64  46  52 NE9       30.11S
ROME           MOSUNNY   62  47  57 VRB3      29.98S
SAVANNAH       SUNNY     63  48  59 NE7       30.07S
TUPELO         SUNNY     64  46  52 N10       30.07F
TUSCALOOSA     SUNNY     64  46  52 NE10      30.06S
$$

...GULF COAST WEATHER...

CITY           SKY/WX    TMP DP  RH WIND       PRES   REMARKS
GULFPORT       SUNNY     66  45  46 NE7       30.06R
PASCAGOULA     SUNNY     66  46  48 N8        30.05S
MOBILE         SUNNY     63  45  51 NE10      30.06S
GULF SHORES    SUNNY     63  44  50 N7        30.03S
PENSACOLA      SUNNY     65  42  43 N10       30.02S
DESTIN         SUNNY     66  46  48 N12       30.01S
PANAMA CITY    SUNNY     64  44  47 N9        29.99R
APPALACHICOLA  SUNNY     66  44  45 NW14      29.96S
$$




USA.gov is the U.S. government's official web portal to all federal, state and local government web resources and services.